Regional Weather Roundup
Issued by NWS

Home | Current Version | Previous Version | Text Only | Print | Product List | Glossary On
Versions: 1 2 3 4 5 6 7 8 9 10 11 12 13 14 15 16 17 18 19 20 21 22 23 24 25 26 27 28 29 30 31 32 33 34 35 36 37 38 39 40 41 42 43 44 45 46 47 48 49 50
000
ASHW40 PHFO 202310
RWRHI

WEATHER ROUNDUP FOR HAWAII
NATIONAL WEATHER SERVICE HONOLULU HI
100 PM HST SAT DEC 20 2014

THIS IS AN AUTOMATED REPORT THAT HAS NOT BEEN QUALITY CONTROLLED.

NOTE..."FAIR" INDICATES FEW OR NO CLOUDS BELOW 12,000 FEET WITH NO
SIGNIFICANT WEATHER AND/OR OBSTRUCTIONS TO VISIBILITY.

* - THESE SITES REPORT LIMITED FIELDS

HIZ001>004-210000-
KAUAI-NIIHAU-

CITY           SKY/WX    TMP DP  RH WIND       PRES   REMARKS
LIHUE APT      PTSUNNY   81  64  56 E7        30.03F
PORT ALLEN*      N/A     82 N/A N/A SE9         N/A
POIPU*           N/A     84 N/A N/A SE2         N/A
PRINCEVILLE*     N/A     82 N/A N/A MISG        N/A
KOKOLE POINT*  NOT AVBL
MOLOAA DAIRY*  NOT AVBL
WAIMEA HTS*    NOT AVBL
PUU OPAE*      NOT AVBL
PUU LUA*       NOT AVBL
MAKAHA RIDGE*  NOT AVBL
$$

HIZ005>011-210000-
OAHU-

CITY           SKY/WX    TMP DP  RH WIND       PRES   REMARKS
HONOLULU       MOSUNNY   80  66  62 S7        29.99F
KALAELOA       MOSUNNY   81  66  60 S10       30.01F
KANEOHE MCB    MOSUNNY   81  66  60 E9G17     30.01F
WHEELER FIELD  FAIR      79  64  59 NE12      30.02F
BELLOWS*       NOT AVBL
KAHUKU*        NOT AVBL
WHEELER*       NOT AVBL
WAIANAE HARBOR NOT AVBL
DILLINGHAM*      N/A     88  66  48 W3G12       N/A  HX  90
KAHUKU TRN*      N/A     77  64  65 E10G20      N/A
KAWAILOA*        N/A     73  64  73 E9G20       N/A
KII*             N/A     79  68  69 E13         N/A
MAKUA RANGE*     N/A     66  48  52 W5          N/A
OAHU FOREST NW NOT AVBL
SCHOFIELD BRK*   N/A     61  48  63 MISG        N/A
SCHOFIELD S*   NOT AVBL
WAIANAE VLY*   NOT AVBL
KUAOKALA*      NOT AVBL
HONOULIUULI*   NOT AVBL
MOKUOLOE IS*   NOT AVBL
PALEHUA*       NOT AVBL
WAIAWA PHB*    NOT AVBL
$$

HIZ012>013-210000-
MOLOKAI-

CITY           SKY/WX    TMP DP  RH WIND       PRES   REMARKS
MOLOKAI AIRPT  MOSUNNY   80  61  52 S10       30.01F
KALAUPAPA      NOT AVBL
MAKAPULAPAI*   NOT AVBL
MOLOKAI 1*     NOT AVBL
PUU ALII*      NOT AVBL
$$

HIZ016-210000-
KAHOOLAWE-

CITY           SKY/WX    TMP DP  RH WIND       PRES   REMARKS
KAHOOLAWE*     NOT AVBL
HAKIOAWA*      NOT AVBL
HONOKANAIA*      N/A     83  66  56 NE15G29   30.02F
KANELOA*         N/A     79  66  65 E20G36    29.26F
KEALIALALO*    NOT AVBL
LUA MAKIKA*    NOT AVBL
$$

HIZ014>015-210000-
LANAI-

CITY           SKY/WX    TMP DP  RH WIND       PRES   REMARKS
LANAI CITY     PTSUNNY   80  63  56 W6        30.06F
LANAI 1*       NOT AVBL
$$

HIZ017>028-210000-
MAUI-

CITY           SKY/WX    TMP DP  RH WIND       PRES   REMARKS
KAHULUI        MOSUNNY   83  59  44 CALM      29.98F
KAPALUA-W MAUI MOSUNNY   82  64  54 N6        30.01
HANA AIRPORT   MOSUNNY   81  68  65 SE6       30.03F
HANA*          NOT AVBL
HALEAKALA SUMM   N/A     57  -9   6 SE28        N/A
MAALAEA BAY*   NOT AVBL
HALEAKALA*     NOT AVBL
KAUPO GAP*     NOT AVBL
KULA 1*          N/A     69  38  32 NW3         N/A
$$

HIZ023>026-210000-
BIG ISLAND OF HAWAII COAST AND LOWER SLOPES-

CITY           SKY/WX    TMP DP  RH WIND       PRES   REMARKS
KAILUA KONA    MOSUNNY   82  65  56 NW9       29.97F
HILO           MOSUNNY   82  64  54 SE8       30.02F
HONOKAA*       NOT AVBL
KAWAIHAE MWT*  NOT AVBL
KAWAIHAE*      NOT AVBL
SOUTH POINT*   NOT AVBL
UPOLU AIRPORT* NOT AVBL
KAMUELA*       CLOUDY    77  57  50 NW7       30.08F
HAKALAU*         N/A     71  14  11 S5G12       N/A
KALOKO-HONOKO* NOT AVBL
PALI 2*          N/A     75  55  50 NE12G22     N/A
KEALAKOMO*       N/A     90  75  62 E13G18      N/A  HX 100
KAUPULEHU*     NOT AVBL
KAPAPALA*        N/A     75  64  67 E9G20       N/A
LOWER KAHUKU*  NOT AVBL
PUHE CS*       NOT AVBL
PUHO CS*       NOT AVBL
PTA KEAMUKU*     N/A     70  57  64 CALM        N/A
WAIKOLOA*      NOT AVBL
$$

HIZ027>028-210000-
BIG ISLAND OF HAWAII INTERIOR AND SUMMMITS-

CITY           SKY/WX    TMP DP  RH WIND       PRES   REMARKS
BRADSHAW FIELD SUNNY     73  15  11 S17G28    30.27F
MK VISITOR CEN NOT AVBL
MAUNA KEA*       N/A     39  -9  12 S39         N/A  WCI  26
MAUNA LOA*     NOT AVBL
MAUNA LOA 1*   NOT AVBL
PTA KIPUKA*      N/A    N/A N/A N/A N6G13       N/A
PTA RANGE 17*    N/A     68  48  49 NW6G21      N/A
PTA WEST*        N/A     68  52  56 NW9G17      N/A
NENE CABIN*    NOT AVBL
AHUMOA*        NOT AVBL
PTA PORTABLE*  NOT AVBL
PUU MALI*      NOT AVBL
$$

HIC003-210000-
NORTHWEST ISLANDS-

CITY           SKY/WX    TMP DP  RH WIND       PRES   REMARKS
MIDWAY ISLAND  MOSUNNY   68  48  49 N13G20    30.20S
MIDWAY NOS*    NOT AVBL
FRENCH FRIGATE NOT AVBL
$$

PHZ110>124-180-210000-
BUOY REPORTS

STATION/POSITION TIME  TEMP    WIND        PRES    WAVE   SWELL
                       AIR SEA DIR/SP/G            HT/PER HT/DIR
                 (UTC) (F)     (DEG/KT/KT) (MB)    (FT/S) (FT/D)
BUOY 51001       NOT AVBL
BUOY 51101       2300   77 77  160/ 10/ 12 1015.7F   6/12   5/280
BUOY 51100       NOT AVBL
BUOY 51003       2200   78 79   80/ 12/ 14 1016.2F   8/12   7
BUOY 51004       2209   78 78   80/ 17/ 21 1014.3F  10/10   8/ 90
BARBERS PT BUOY  NOT AVBL
WAIMEA BAY BUOY  2300      77                N/A     5/13
KAILUA BAY BUOY  2300      78                N/A     6/13   3
LANAI BUOY       2300      78                N/A     3/13   2/290
BARBERS PT 2     2300      78                N/A     5/11   3/230
PAUWELA MAUI     2300      77                N/A     8/13   5/340
HILO             2300      78                N/A    10/ 9   5/360
KANEOHE BAY BUOY 2300      77                N/A     6/13   3/350
HANALEI KAUAI    NOT AVBL
KAHULUI HARBOR   2300   79 76  310/  6/  8 1015.3F
HONOLULU HARBOR  2300   78     200/  5/  9 1016.4F
KILO NALU        NOT AVBL
HILO HARBOR      2300   86     120/  7/ 11 1016.2F
MOKUOLOE         2300   79      90/  6/  9   N/A
NAWILIWILI       2300      77                N/A
WHOTS BUOY       NOT AVBL
BUOY 51028       NOT AVBL
$$

......................KEY........................................
  SKY/WX - SKY CONDITIONS/PRESENT WEATHER
  TMP    - TEMPERATURE IN FAHRENHEIT
  DWPT   - DEWPOINT IN FAHRENHEIT
  RH     - RELATIVE HUMIDITY IN PERCENT
  WIND   - DIRECTION AND SPEED /MPH FOR ISLANDS...KTS FOR BUOYS/
  PRES   - MEAN SEA LEVEL PRESSURE IN INCHES OF HG
  VSB    - VISIBILITY IN MILES
  HX     - HEAT INDEX
  WCI    - WIND CHILL INDEX
  VRB    - VARIABLE WIND DIRECTION
  N/A    - NOT AVAILABLE



USA.gov is the U.S. government's official web portal to all federal, state and local government web resources and services.